Location: Newark
(44.2886°N, 4.8431°E)
Time: 14:53:16
(UTC+00:00)

ZACube-1 - Pass Details

Date: 28 November 2020
Orbit: 584 x 665 km, 97.6° (Epoch: 14 January)

Event Time Altitude Azimuth Distance (km) Brightness Sun altitude
Rises 06:14:27 0° 356° (N) 2,823 ? -7.0°
Reaches altitude 10° 06:17:14 10° 336° (NNW) 1,921 ? -6.6°
Maximum altitude 06:19:53 17° 296° (WNW) 1,535 ? -6.1°
Drops below altitude 10° 06:22:32 10° 256° (WSW) 1,927 ? -5.7°
Sets 06:25:20 0° 236° (SW) 2,836 ? -5.3°
